RH
27 28 44 51 44 51 59 65 69 58 66 55 57 65 63 56 59 55 52 65 76 76 69 70 82 90 83 81 89 91 83 77 74 78 76 64 55 45 36 27 21 25 30 34
28 42 43 43 44 49 53 60 66 53 65 66 68 75 69 62 60 63 59 71 78 80 76 76 86 88 92 82 82 96 89 76 82 75 71 65 57 52 36 26 26 30 30 31
43 40 40 43 44 46 53 70 53 57 57 58 65 77 69 70 60 68 66 70 85 87 81 85 89 95 93 85 84 86 93 88 80 79 72 71 63 57 48 37 36 31 28 28
29 33 40 41 45 47 54 49 51 50 60 78 81 83 72 74 68 64 73 73 94 91 82 77 98 94 94 91 87 93 95 84 83 83 74 71 60 52 46 43 36 33 29 28
28 35 43 44 45 46 51 46 50 53 60 77 74 88 84 74 70 68 72 87 96 98 91 82 87 89 93 97 88 87 88 87 81 84 75 72 65 56 45 44 46 44 36 36
29 34 43 51 43 47 50 53 61 62 63 74 91 90 88 84 82 72 74 97 97 97 88 85 86 98 97 98 96 92 96 86 89 77 73 76 69 60 48 45 47 50 52 44
29 32 37 45 42 40 50 59 69 69 67 80 90 86 90 88 85 78 74 93 96 97 94 83 79 97 98 98 97 99 91 92 84 89 71 78 74 67 53 43 44 47 51 55
53 46 40 48 53 59 61 71 84 83 81 78 78 92 88 89 85 84 76 90 97 94 96 90 80 81 86 89 96 98 98 82 88 94 83 83 80 73 66 48 44 48 50 51
54 44 33 45 51 52 58 72 81 88 81 84 93 92 89 88 85 80 75 85 97 97 96 96 85 82 87 84 91 94 93 99 87 81 94 89 83 75 72 61 49 48 51 49
48 54 33 36 44 52 56 64 78 85 88 85 81 98 94 93 94 84 77 90 96 98 96 97 92 83 82 86 88 93 96 96 93 96 97 86 91 89 76 66 59 53 56 55
45 54 32 33 49 63 61 65 74 83 91 90 89 85 93 98 95 91 85 85 96 95 96 96 94 83 82 83 81 82 89 99 95 94 93 97 90 89 86 75 65 62 58 59
40 46 51 38 40 56 63 66 70 78 78 91 91 81 91 90 91 89 85 84 89 97 95 96 97 87 85 81 79 76 87 89 98 98 97 96 97 94 92 98 76 70 70 66
31 42 51 31 31 46 57 65 71 73 76 81 86 78 75 81 83 84 83 82 85 92 96 97 97 95 88 83 80 76 77 86 93 97 96 96 98 98 99 94 93 83 83 76
28 38 39 51 34 40 54 58 63 67 73 67 70 66 62 70 77 81 80 79 79 87 95 98 96 97 88 86 85 80 76 75 84 95 96 98 95 93 98 97 97 98 99 89
33 38 39 38 34 37 46 48 50 64 65 65 49 63 57 65 72 74 77 83 83 77 86 91 95 96 96 88 87 89 84 78 77 84 88 97 98 98 98 98 95 96 98 98
39 42 42 43 32 34 34 34 46 57 60 57 61 55 46 52 61 64 68 80 86 76 70 85 92 96 96 94 91 90 90 85 80 76 78 87 97 98 96 98 99 99 96 95
48 47 52 46 35 31 37 44 43 44 44 47 55 47 41 47 49 55 60 70 78 77 70 74 85 92 92 94 94 91 92 91 85 81 76 81 88 95 98 98 97 98 96 95
55 54 56 52 38 27 26 34 32 35 32 32 31 30 39 44 38 40 51 62 66 69 73 71 75 84 88 95 95 95 94 95 93 91 84 76 75 80 91 94 96 95 96 98
56 57 57 51 57 33 28 33 34 38 28 24 28 31 33 33 36 33 38 54 62 64 68 71 74 76 80 89 92 91 92 92 95 95 93 86 80 77 85 87 94 94 93 96
58 57 53 62 59 42 29 33 34 33 39 25 22 23 24 25 35 35 34 42 55 63 66 67 67 73 77 81 88 87 86 89 91 93 96 94 90 85 85 88 88 93 91 92
57 62 61 61 63 44 30 35 35 39 23 21 23 23 25 28 24 26 34 35 44 57 63 65 66 69 76 77 79 84 85 85 85 87 93 95 92 89 87 88 88 88 88 88
55 62 60 54 61 43 35 40 36 25 22 21 21 23 24 24 23 26 30 35 37 48 57 60 65 69 70 72 76 76 81 82 81 80 81 85 90 91 88 87 87 84 79 80
62 53 53 46 43 35 34 29 25 23 22 21 21 23 25 26 24 26 28 33 37 40 50 57 61 65 69 71 70 72 77 77 78 79 76 77 83 88 92 93 91 89 85 83
61 56 58 48 42 36 33 28 23 21 22 23 23 24 26 26 25 25 30 31 34 39 41 49 60 63 66 71 73 73 71 74 76 77 79 75 76 82 86 91 96 93 91 85
61 61 61 56 45 37 31 26 23 21 21 20 22 24 26 27 26 26 29 32 32 36 40 41 49 60 64 66 69 70 70 70 72 74 75 76 73 77 78 84 90 94 96 93
65 63 63 62 46 40 31 28 26 22 20 20 20 23 27 28 26 27 28 34 33 32 37 41 42 48 56 62 64 65 67 69 70 71 73 73 75 76 76 76 76 87 94 95